Lexington Weather

Lexington, Massachusetts, USA

72°F
8/7/2020 11:07am 
  • Lexington Conditions: Clear
  • Temperature: 72.0°F / 22.2°CWarmer 2.4°F than last hour.
  • Dew Point: 63.1°FIncreased 1.4°Fsince last hour.
  • Relative Humidity: 74%Decreased 2.0% since last hour.
  • Wind: Wind from WSW WSW Calm, 10-min avg: 1 mph, gust: 2 mph
  • Barometer: 30.14 in Steady
  • Visibility: 10 miles
  • Rain Today: 0.00 in
  •   

Regional Weather Roundup
for Boston / Norton, MA

        
000
ASUS41 KBOX 022304
RWRBOX

REGIONAL WEATHER ROUNDUP
NATIONAL WEATHER SERVICE BOSTON/NORTON MA
700 PM EDT SUN AUG 02 2020

NOTE:  "FAIR" INDICATES FEW OR NO CLOUDS BELOW 12,000 FEET WITH NO 
SIGNIFICANT WEATHER AND/OR OBSTRUCTIONS TO VISIBILITY.

MAZALL-030000-
EASTERN MASSACHUSETTS
  
CITY           SKY/WX    TMP DP  RH WIND       PRES   REMARKS
BOSTON         CLOUDY    76  71  85 S18G24    29.91F                  
BEVERLY        LGT RAIN  73  70  90 SE6       29.92S                  
LAWRENCE       LGT RAIN  76  73  91 S9        29.94S FOG              
BEDFORD        CLOUDY    76  73  91 S7        29.91S                  
BLUE HILL      NOT AVBL                                               
NORWOOD        CLOUDY    80  72  76 S10G18    29.91F                  
MARSHFIELD     CLOUDY    81  73  78 S13G20    29.93F                  
PLYMOUTH       CLOUDY    78  72  81 S8G20     29.95F                  
TAUNTON        CLOUDY    80  72  76 SE12G20   29.93F                  
NEW BEDFORD    CLOUDY    78  74  87 S18       29.94F                  
$$

MAZALL-030000-
CAPE COD AND THE ISLANDS
  
CITY           SKY/WX    TMP DP  RH WIND       PRES   REMARKS
FALMOUTH       MOCLDY    77  72  83 S17G25    29.97F                  
HYANNIS        CLOUDY    77  72  84 S8G18     29.95F                  
CHATHAM        MOCLDY    72  67  84 S10G24    29.99F                  
PROVINCETOWN   PTCLDY    76  71  85 S14G21    29.96F                  
NANTUCKET      CLOUDY    73  68  84 SE16      29.99F                  
MARTHAS VNYRD  CLOUDY    74  71  91 SE15G22   29.96F                  
$$
 
MAZALL-030000-
CENTRAL AND WESTERN MASSACHUSETTS
  
CITY           SKY/WX    TMP DP  RH WIND       PRES   REMARKS
WORCESTER      CLOUDY    75  72  90 S12       29.94S                  
FITCHBURG      CLOUDY    76  72  87 SE8       29.91F                  
ORANGE         CLOUDY    76  74  93 S9        29.90F                  
SPRINGFIELD    PTSUNNY   78  74  88 S6        29.86S                  
WESTFIELD      CLOUDY    78  76  93 S8        29.86F                  
NORTH ADAMS    MOSUNNY   81  72  74 E10G22    29.84F                  
PITTSFIELD     PTSUNNY   79  72  79 VRB6G16   29.86F                  
$$
 
RIZALL-030000-
RHODE ISLAND
  
CITY           SKY/WX    TMP DP  RH WIND       PRES   REMARKS
PROVIDENCE     LGT RAIN  78  75  90 S17G23    29.93F                  
NEWPORT        CLOUDY    78  74  87 S14G23    29.94S                  
BLOCK ISLAND   CLOUDY    77  75  93 S15       29.93F                  
SMITHFIELD     CLOUDY    76  75  97 VRB5      29.94F                  
WESTERLY       CLOUDY    77  73  87 S12       29.93F                  
$$
 
CTZALL-030000-
CONNECTICUT
  
CITY           SKY/WX    TMP DP  RH WIND       PRES   REMARKS
BRADLEY INTL   PTSUNNY   79  75  87 S14       29.85F                  
HARTFORD       CLOUDY    81  76  84 S8        29.85F                  
BRIDGEPORT     MOSUNNY   83  75  77 S10       29.85F HX  90           
DANBURY        MOSUNNY   82  75  79 S10G22    29.85F                  
GROTON         CLOUDY    77  74  90 SE12      29.90F                  
NEW HAVEN      PTSUNNY   82  77  84 SE7       29.86F HX  90           
CHESTER        CLOUDY    79  77  94 S10       29.90F                  
MERIDEN        CLOUDY    81  75  82 S8        29.86F                  
WILLIMANTIC    CLOUDY    79  74  84 S12       29.89F                  
OXFORD         PTSUNNY   79  76  90 S14       29.89F                  
$$

MEZ002-015-021-024-NHZ003-005-008-011-012-014-VTZ005-008-030000-
NORTHERN NEW ENGLAND
  
CITY           SKY/WX    TMP DP  RH WIND       PRES   REMARKS
PORTLAND ME    CLOUDY    76  65  68 S10G18    29.93F                  
BANGOR ME      CLOUDY    75  63  66 S14       29.96S                  
CONCORD NH     CLOUDY    77  69  76 SE10      29.90S                  
MANCHESTER NH  CLOUDY    80  71  74 S13G21    29.89F                  
NASHUA NH      PTSUNNY   78  75  90 SE6       29.91F                  
PORTSMOUTH NH  MOCLDY    75  67  75 SE12      29.90                   
JAFFREY NH     CLOUDY    74  70  87 S6        29.93F                  
KEENE NH       CLOUDY    76  72  87 S6        29.88F                  
BURLINGTON VT  PTSUNNY   83  67  58 SE9       29.74F                  
MT. WASHINGTON FOG       55  55 100 S24G37      N/A  VSB 0            
$$

NYZ052-076-030000-
EASTERN NEW YORK
  
CITY           SKY/WX    TMP DP  RH WIND       PRES   REMARKS
ALBANY         PTSUNNY   82  74  76 SE9       29.78S                  
NEW YORK CITY  MOSUNNY   88  74  63 S13       29.82S HX  96           
$$
 
ANZALL-030000-
MARINE OBSERVATIONS
  
STATION/POSITION TIME  TEMP    WIND        PRES    VSBY  WAVE
                       AIR SEA DIR/SP/G                  HT/PER
                 (UTC) (F)     (DEG/KT/KT) (MB)    (MI)  (FT/S)
BOSTON BUOY      2250   72 67  140/ 17/ 21 1012.1F         3/ 4
BUZZARDS BAY     2200          150/ 19/ 21 1014.8F
NANTUCKET SOUND  2240      76  160/ 19/ 23 1014.0
MASS BAY-STELLWA NOT AVBL
ISLE OF SHOALS   2200   74     160/ 26/ 28 1012.6F
S OF BLOCK IS    2226      73                N/A           4/ 9
$$

......................KEY.........................
  SKY/WX - SKY CONDITION/PRESENT WEATHER
  TMP    - TEMPERATURE IN FAHRENHEIT
  DWPT   - DEWPOINT IN FAHRENHEIT
  RH     - RELATIVE HUMIDITY IN PERCENT
  WIND   - DIRECTION AND SPEED IN MPH
  PRES   - MEAN SEA LEVEL PRESSURE IN INCHES OF HG
  WCI    - WIND CHILL INDEX
  VSB    - VISIBILITY IN MILES
  HX     - HEAT INDEX
  TC     - TEMPERATURE IN CELSIUS
  VRB    - VARIABLE WIND DIRECTION
  N/A    - NOT AVAILABLE
  
      

Other recent Regional Weather Roundups

Fri Aug 7, 10:04am

Fri Aug 7, 9:04am

Fri Aug 7, 8:04am

Fri Aug 7, 7:04am

Fri Aug 7, 6:04am

Fri Aug 7, 5:04am

Fri Aug 7, 4:04am

Fri Aug 7, 3:04am

Fri Aug 7, 2:04am

Fri Aug 7, 1:05am

Fri Aug 7, 12:04am

Thu Aug 6, 11:04pm

Thu Aug 6, 10:04pm

Thu Aug 6, 9:04pm

Thu Aug 6, 8:04pm

Thu Aug 6, 7:04pm

Thu Aug 6, 6:04pm

Thu Aug 6, 5:04pm

Thu Aug 6, 4:05pm

Thu Aug 6, 3:04pm

Thu Aug 6, 2:05pm

Thu Aug 6, 1:04pm

Thu Aug 6, 12:04pm

Thu Aug 6, 11:04am

Thu Aug 6, 10:04am

Thu Aug 6, 9:04am

Thu Aug 6, 8:04am

Thu Aug 6, 7:04am

Thu Aug 6, 6:04am

Thu Aug 6, 5:04am

Thu Aug 6, 4:04am

Thu Aug 6, 3:04am

Thu Aug 6, 2:05am

Thu Aug 6, 1:04am

Thu Aug 6, 12:04am

Wed Aug 5, 11:04pm

Wed Aug 5, 10:04pm

Wed Aug 5, 9:04pm

Wed Aug 5, 8:05pm

Wed Aug 5, 7:04pm

Wed Aug 5, 6:04pm

Wed Aug 5, 5:04pm

Wed Aug 5, 4:05pm

Wed Aug 5, 3:04pm

Wed Aug 5, 2:04pm

Wed Aug 5, 1:04pm

Wed Aug 5, 12:04pm

Wed Aug 5, 11:04am

Wed Aug 5, 10:04am

Wed Aug 5, 9:04am

Wed Aug 5, 8:04am

Wed Aug 5, 7:04am

Wed Aug 5, 6:04am

Wed Aug 5, 5:04am

Wed Aug 5, 4:04am

Wed Aug 5, 3:04am

Wed Aug 5, 2:05am

Wed Aug 5, 1:04am

Wed Aug 5, 12:05am

Tue Aug 4, 11:05pm

Tue Aug 4, 10:05pm

Tue Aug 4, 9:04pm

Tue Aug 4, 8:04pm

Tue Aug 4, 7:05pm

Tue Aug 4, 6:05pm

Tue Aug 4, 5:05pm

Tue Aug 4, 4:05pm

Tue Aug 4, 3:04pm

Tue Aug 4, 2:05pm

Tue Aug 4, 1:04pm

Tue Aug 4, 12:05pm

Tue Aug 4, 11:04am

Tue Aug 4, 10:04am

Tue Aug 4, 9:04am

Tue Aug 4, 8:04am

Tue Aug 4, 7:04am

Tue Aug 4, 6:04am

Tue Aug 4, 5:04am

Tue Aug 4, 4:04am

Tue Aug 4, 3:04am

Tue Aug 4, 2:04am

Tue Aug 4, 1:04am

Tue Aug 4, 12:04am

Mon Aug 3, 11:04pm

Mon Aug 3, 10:04pm

Mon Aug 3, 9:04pm

Mon Aug 3, 8:05pm

Mon Aug 3, 7:04pm

Mon Aug 3, 6:04pm

Mon Aug 3, 5:04pm

Mon Aug 3, 4:05pm

Mon Aug 3, 3:04pm

Mon Aug 3, 2:04pm

Mon Aug 3, 1:04pm

Mon Aug 3, 12:05pm

Mon Aug 3, 11:04am

Mon Aug 3, 10:04am

Mon Aug 3, 9:05am

Mon Aug 3, 8:04am

Mon Aug 3, 7:04am

Mon Aug 3, 6:04am

Mon Aug 3, 5:04am

Mon Aug 3, 4:04am

Mon Aug 3, 3:04am

Mon Aug 3, 2:04am

Mon Aug 3, 1:04am

Mon Aug 3, 12:05am

Sun Aug 2, 11:04pm

Sun Aug 2, 10:04pm

Sun Aug 2, 9:04pm

Sun Aug 2, 8:04pm

Sun Aug 2, 6:04pm

Sun Aug 2, 5:04pm

Sun Aug 2, 4:05pm

Sun Aug 2, 3:04pm

Sun Aug 2, 2:05pm

Sun Aug 2, 1:04pm

Sun Aug 2, 12:04pm

Sun Aug 2, 11:04am

Sun Aug 2, 10:04am

Sun Aug 2, 9:05am

Sun Aug 2, 8:05am

Sun Aug 2, 7:04am

Sun Aug 2, 6:04am

Sun Aug 2, 5:04am

Sun Aug 2, 4:05am

Sun Aug 2, 3:04am

Sun Aug 2, 2:04am

Sun Aug 2, 1:04am

Sun Aug 2, 12:05am

Sat Aug 1, 11:04pm

Sat Aug 1, 10:04pm

Sat Aug 1, 9:04pm

Sat Aug 1, 8:05pm

Sat Aug 1, 7:04pm

Sat Aug 1, 6:04pm

Sat Aug 1, 5:05pm

Sat Aug 1, 4:05pm

Sat Aug 1, 3:04pm

Sat Aug 1, 2:04pm

Sat Aug 1, 1:04pm

Sat Aug 1, 12:04pm

Sat Aug 1, 11:05am

Sat Aug 1, 10:05am

Sat Aug 1, 9:04am

Sat Aug 1, 8:04am

Sat Aug 1, 7:04am

Sat Aug 1, 6:04am

Sat Aug 1, 5:04am

Sat Aug 1, 4:05am

Sat Aug 1, 3:04am

Sat Aug 1, 2:04am

Sat Aug 1, 1:04am

Sat Aug 1, 12:05am

Fri Jul 31, 11:05pm

Fri Jul 31, 10:04pm

Fri Jul 31, 9:04pm

Fri Jul 31, 8:05pm

Fri Jul 31, 7:05pm

Fri Jul 31, 6:04pm

Fri Jul 31, 5:04pm

Fri Jul 31, 4:05pm

Fri Jul 31, 3:04pm

Fri Jul 31, 2:05pm

Fri Jul 31, 1:04pm

Fri Jul 31, 12:04pm

Fri Jul 31, 11:04am

Meta data:

ID: f2b0226b-cb6f-41cc-93d9-f301cf95cff1
Link: https://api.weather.gov/products/f2b0226b-cb6f-41cc-93d9-f301cf95cff1